• în România
  • Lista ţărilor
  • Pe 7 zile
  • Temperatura apei
  • Hartă satelitară
  • Meteo pe hartă
  • Widget-uri
  • user-avatar
    Intrare

    Meteo pe oră la Turksad

    Astăzi, 23 Septembrie, Duminică

    Timp Temperatura Precipitaţii Vânt Presiune Umiditate
    00:00 +19°C° 0 mm 4 m/s 760 mmHg 72%
    01:00 +19°C° 0 mm 4 m/s 760 mmHg 74%
    02:00 +18°C° 0 mm 4 m/s 760 mmHg 76%
    03:00 +18°C° 0 mm 3 m/s 760 mmHg 78%
    04:00 +18°C° 0 mm 3 m/s 760 mmHg 80%
    05:00 +17°C° 0 mm 3 m/s 760 mmHg 81%
    06:00 +17°C° 0 mm 3 m/s 760 mmHg 82%
    07:00 +19°C° 0 mm 3 m/s 760 mmHg 76%
    08:00 +20°C° 0 mm 4 m/s 760 mmHg 69%
    09:00 +22°C° 0 mm 4 m/s 760 mmHg 62%
    10:00 +25°C° 0 mm 4 m/s 759 mmHg 54%
    11:00 +26°C° 0 mm 4 m/s 759 mmHg 47%
    12:00 +28°C° 0 mm 4 m/s 759 mmHg 39%
    13:00 +29°C° 0 mm 4 m/s 758 mmHg 37%
    14:00 +29°C° 0 mm 4 m/s 758 mmHg 35%
    15:00 +30°C° 0 mm 4 m/s 758 mmHg 33%
    16:00 +29°C° 0 mm 3 m/s 758 mmHg 36%
    17:00 +28°C° 0 mm 3 m/s 757 mmHg 40%
    18:00 +27°C° 0 mm 3 m/s 757 mmHg 43%
    19:00 +26°C° 0 mm 3 m/s 757 mmHg 47%
    20:00 +25°C° 0 mm 3 m/s 758 mmHg 51%
    21:00 +23°C° 0 mm 4 m/s 758 mmHg 55%
    22:00 +23°C° 0 mm 4 m/s 758 mmHg 57%
    23:00 +23°C° 0 mm 4 m/s 758 mmHg 60%

    Mâine, 24 Septembrie, Luni

    Timp Temperatura Precipitaţii Vânt Presiune Umiditate
    00:00 +22°C° 0 mm 4 m/s 758 mmHg 62%
    01:00 +22°C° 0 mm 4 m/s 758 mmHg 63%
    02:00 +22°C° 0 mm 4 m/s 758 mmHg 64%
    03:00 +22°C° 0 mm 4 m/s 758 mmHg 65%
    04:00 +22°C° 0 mm 4 m/s 759 mmHg 65%
    05:00 +22°C° 0 mm 4 m/s 759 mmHg 64%
    06:00 +22°C° 0 mm 3 m/s 759 mmHg 64%
    07:00 +22°C° 0 mm 4 m/s 760 mmHg 60%
    08:00 +23°C° 0 mm 4 m/s 760 mmHg 57%
    09:00 +23°C° 0 mm 4 m/s 761 mmHg 53%
    10:00 +25°C° 0 mm 4 m/s 760 mmHg 51%
    11:00 +26°C° 0 mm 4 m/s 760 mmHg 48%
    12:00 +26°C° 0 mm 3 m/s 760 mmHg 46%
    13:00 +27°C° 0 mm 3 m/s 760 mmHg 44%
    14:00 +27°C° 0 mm 3 m/s 760 mmHg 43%
    15:00 +28°C° 0 mm 3 m/s 759 mmHg 41%
    16:00 +27°C° 0 mm 2 m/s 759 mmHg 43%
    17:00 +26°C° 0 mm 2 m/s 759 mmHg 45%
    18:00 +25°C° 0 mm 1 m/s 758 mmHg 48%
    19:00 +25°C° 0 mm 1 m/s 758 mmHg 49%
    20:00 +24°C° 0 mm 2 m/s 758 mmHg 50%
    21:00 +24°C° 0 mm 2 m/s 758 mmHg 51%
    22:00 +24°C° 0 mm 2 m/s 758 mmHg 52%
    23:00 +22°C° 0 mm 3 m/s 757 mmHg 53%

    Poimâine, 25 Septembrie, Marţi

    Timp Temperatura Precipitaţii Vânt Presiune Umiditate
    00:00 +22°C° 0 mm 3 m/s 757 mmHg 54%
    01:00 +21°C° 0 mm 3 m/s 757 mmHg 56%
    02:00 +21°C° 0 mm 3 m/s 756 mmHg 58%
    03:00 +20°C° 0 mm 3 m/s 756 mmHg 59%
    04:00 +20°C° 0 mm 3 m/s 756 mmHg 63%
    05:00 +20°C° 0 mm 3 m/s 756 mmHg 66%
    06:00 +19°C° 0 mm 3 m/s 756 mmHg 69%
    07:00 +21°C° 0 mm 3 m/s 756 mmHg 65%
    08:00 +23°C° 0 mm 4 m/s 756 mmHg 61%
    09:00 +25°C° 0 mm 4 m/s 756 mmHg 56%
    10:00 +27°C° 0 mm 4 m/s 755 mmHg 51%
    11:00 +28°C° 0 mm 4 m/s 755 mmHg 46%
    12:00 +30°C° 0 mm 4 m/s 755 mmHg 41%
    13:00 +30°C° 0 mm 3 m/s 754 mmHg 39%
    14:00 +31°C° 0 mm 2 m/s 754 mmHg 37%
    15:00 +32°C° 0 mm 2 m/s 754 mmHg 35%
    16:00 +31°C° 0 mm 2 m/s 754 mmHg 38%
    17:00 +30°C° 0 mm 3 m/s 754 mmHg 40%
    18:00 +29°C° 0 mm 3 m/s 755 mmHg 43%
    19:00 +27°C° 0 mm 4 m/s 755 mmHg 47%
    20:00 +26°C° 0 mm 5 m/s 756 mmHg 52%
    21:00 +23°C° 0 mm 5 m/s 757 mmHg 56%
    22:00 +22°C° 0.2 mm 6 m/s 757 mmHg 58%
    23:00 +21°C° 0.2 mm 7 m/s 758 mmHg 60%

    26 Septembrie, Miercuri

    Timp Temperatura Precipitaţii Vânt Presiune Umiditate
    00:00 +18°C° 0.2 mm 8 m/s 758 mmHg 62%
    01:00 +18°C° 0.2 mm 8 m/s 759 mmHg 64%
    02:00 +17°C° 0.2 mm 7 m/s 759 mmHg 65%
    03:00 +16°C° 0.2 mm 7 m/s 760 mmHg 67%
    04:00 +15°C° 0.6 mm 7 m/s 760 mmHg 69%
    05:00 +15°C° 0.6 mm 6 m/s 761 mmHg 70%
    06:00 +14°C° 0.6 mm 6 m/s 761 mmHg 72%
    07:00 +14°C° 0.5 mm 5 m/s 762 mmHg 71%
    08:00 +14°C° 0.5 mm 5 m/s 762 mmHg 70%
    09:00 +15°C° 0.5 mm 4 m/s 763 mmHg 68%
    10:00 +15°C° 0.4 mm 4 m/s 763 mmHg 67%
    11:00 +15°C° 0.4 mm 4 m/s 763 mmHg 67%
    12:00 +15°C° 0.4 mm 5 m/s 764 mmHg 66%
    13:00 +15°C° 0.2 mm 4 m/s 764 mmHg 63%
    14:00 +15°C° 0.2 mm 4 m/s 764 mmHg 60%
    15:00 +17°C° 0.2 mm 4 m/s 764 mmHg 57%
    16:00 +17°C° 0 mm 3 m/s 764 mmHg 56%
    17:00 +17°C° 0 mm 3 m/s 765 mmHg 54%
    18:00 +17°C° 0 mm 2 m/s 765 mmHg 52%
    19:00 +17°C° 0 mm 2 m/s 765 mmHg 51%
    20:00 +17°C° 0 mm 2 m/s 765 mmHg 51%
    21:00 +17°C° 0 mm 2 m/s 766 mmHg 50%
    22:00 +16°C° 0 mm 3 m/s 766 mmHg 50%
    23:00 +16°C° 0 mm 3 m/s 766 mmHg 50%

    27 Septembrie, Joi

    Timp Temperatura Precipitaţii Vânt Presiune Umiditate
    00:00 +16°C° 0 mm 3 m/s 765 mmHg 50%
    01:00 +16°C° 0 mm 3 m/s 766 mmHg 49%
    02:00 +14°C° 0 mm 3 m/s 766 mmHg 49%
    03:00 +14°C° 0 mm 3 m/s 766 mmHg 48%
    04:00 +14°C° 0 mm 3 m/s 766 mmHg 49%
    05:00 +14°C° 0 mm 3 m/s 766 mmHg 49%
    06:00 +13°C° 0 mm 3 m/s 766 mmHg 50%
    07:00 +14°C° 0 mm 3 m/s 766 mmHg 50%
    08:00 +14°C° 0 mm 3 m/s 766 mmHg 51%
    09:00 +14°C° 0 mm 3 m/s 766 mmHg 51%
    10:00 +14°C° 0 mm 3 m/s 766 mmHg 49%
    11:00 +15°C° 0 mm 4 m/s 766 mmHg 47%
    12:00 +17°C° 0 mm 4 m/s 766 mmHg 45%
    13:00 +17°C° 0 mm 3 m/s 765 mmHg 42%
    14:00 +18°C° 0 mm 3 m/s 765 mmHg 40%
    15:00 +18°C° 0 mm 2 m/s 764 mmHg 37%
    16:00 +18°C° 0 mm 2 m/s 764 mmHg 39%
    17:00 +17°C° 0 mm 2 m/s 764 mmHg 41%
    18:00 +17°C° 0 mm 2 m/s 764 mmHg 42%
    19:00 +16°C° 0 mm 2 m/s 764 mmHg 43%
    20:00 +16°C° 0 mm 2 m/s 764 mmHg 44%
    21:00 +15°C° 0 mm 2 m/s 764 mmHg 45%
    22:00 +15°C° 0 mm 2 m/s 764 mmHg 46%
    23:00 +15°C° 0 mm 2 m/s 764 mmHg 46%

    28 Septembrie, Vineri

    Timp Temperatura Precipitaţii Vânt Presiune Umiditate
    00:00 +14°C° 0 mm 2 m/s 763 mmHg 47%
    01:00 +14°C° 0 mm 1 m/s 763 mmHg 48%
    02:00 +14°C° 0 mm 1 m/s 763 mmHg 49%
    03:00 +13°C° 0 mm 1 m/s 763 mmHg 51%
    04:00 +13°C° 0 mm 1 m/s 763 mmHg 51%
    05:00 +13°C° 0 mm 1 m/s 763 mmHg 50%
    06:00 +13°C° 0 mm 1 m/s 764 mmHg 50%
    07:00 +14°C° 0 mm 1 m/s 764 mmHg 48%
    08:00 +15°C° 0 mm 1 m/s 764 mmHg 45%
    09:00 +16°C° 0 mm 1 m/s 765 mmHg 43%
    10:00 +18°C° 0 mm 1 m/s 764 mmHg 41%
    11:00 +18°C° 0 mm 2 m/s 764 mmHg 40%
    12:00 +18°C° 0 mm 2 m/s 764 mmHg 38%
    13:00 +19°C° 0 mm 2 m/s 764 mmHg 37%
    14:00 +20°C° 0 mm 2 m/s 764 mmHg 36%
    15:00 +21°C° 0 mm 2 m/s 763 mmHg 36%
    16:00 +20°C° 0 mm 2 m/s 763 mmHg 39%
    17:00 +19°C° 0 mm 2 m/s 763 mmHg 41%
    18:00 +18°C° 0 mm 2 m/s 763 mmHg 44%
    19:00 +18°C° 0 mm 2 m/s 763 mmHg 46%
    20:00 +17°C° 0 mm 3 m/s 763 mmHg 47%
    21:00 +17°C° 0 mm 3 m/s 763 mmHg 49%
    22:00 +16°C° 0 mm 3 m/s 763 mmHg 51%
    23:00 +16°C° 0 mm 2 m/s 763 mmHg 53%
    Arată mai mult